User: anonymous   Login
Location: Unspecified
(0.0000°N, 0.0000°E)
Time: 13:06:56
(UTC+01:00)
Language:

H-2A R/B - Orbit

View from above orbital plane
View from above orbital plane
View from above satellite
View from above satellite

Ground track
Ground track

The orbit data is extracted from the following two-line orbital elements,

1 26899U 01038B   16041.59584479 +.00003822 +00000-0 +63721-3 0  9996
2 26899 028.0635 265.7698 7143747 221.2080 053.8357 02.46604077124296
Epoch (UTC): 10 February 2016 14:18:00
Eccentricity: 0.7143747
inclination: 28.0635°
perigee height: 232 km
apogee height: 33295 km
right ascension of ascending node: 265.7698°
argument of perigee: 221.2080°
revolutions per day: 2.46604077
mean anomaly at epoch: 53.8357°
orbit number at epoch: 12429

The dashed part of the orbit path shows where the satellite is in the earth's shadow,  

DLR